RH
40 39 38 36 33 31 30 30 30 28 29 28 24 21 23 36 88 49 98 90 54 44 40 42 38 35 48 42 43 38 43 30
25 23 22 20 18 23 28 27 24 22 18 21 27 26 18 18 21 91 63 96 74 55 56 42 42 36 39 50 51 40 32 35
17 15 12 10 8 8 8 8 9 10 12 10 10 20 24 15 15 25 90 88 96 79 63 46 44 41 40 44 49 53 39 32
10 8 7 7 6 4 4 4 4 4 4 5 6 7 11 16 15 15 34 83 79 95 69 54 49 47 43 44 43 45 42 40
12 6 6 8 7 7 6 5 5 6 5 6 6 4 6 9 8 12 17 49 84 95 84 59 52 53 49 45 44 46 46 47
27 21 25 17 16 17 14 15 17 24 27 28 33 30 14 5 8 6 10 22 66 94 95 60 48 55 54 49 46 47 54 59
25 31 22 30 34 29 22 20 20 28 33 32 29 28 23 21 5 6 7 11 69 81 95 54 34 51 55 52 50 54 58 62
30 33 41 48 66 53 41 38 41 30 32 38 41 32 28 43 28 6 6 6 25 73 98 81 67 46 64 60 52 55 60 61
47 46 51 50 42 46 47 41 36 28 30 44 68 57 48 56 52 15 7 6 26 40 75 94 96 57 68 66 61 62 64 68
38 57 50 44 31 30 31 27 39 28 29 57 82 61 43 36 28 29 15 6 31 29 74 99 92 83 65 71 73 70 70 74
31 36 64 54 41 36 36 36 35 34 37 50 64 53 76 46 38 31 19 7 19 17 98 93 80 84 77 75 82 84 71 73
30 29 55 56 45 53 53 39 46 39 64 78 90 76 100 40 47 40 24 12 12 23 51 97 96 89 68 69 85 89 72 81
33 34 52 65 68 65 68 59 57 67 75 91 100 96 99 40 59 40 32 12 12 58 83 98 96 95 39 56 67 53 66 89
65 49 45 59 73 91 82 72 84 94 99 99 100 100 82 36 45 49 39 21 8 100 81 95 93 74 66 64 72 73 97 89
71 66 49 65 56 90 100 99 95 97 100 100 100 100 94 43 98 46 38 18 11 30 95 97 96 95 97 84 66 82 93 96
73 72 69 74 88 88 85 94 100 100 100 100 100 100 99 54 50 97 66 20 9 44 85 98 96 93 98 86 69 93 92 96
73 77 70 71 76 86 98 86 93 100 100 100 100 94 100 100 92 64 40 20 26 83 96 96 97 95 94 98 78 100 100 97
70 69 63 61 57 63 69 95 99 98 97 100 100 100 100 99 99 100 36 90 95 97 98 96 97 97 96 97 99 96 96 95
65 66 56 51 46 43 49 59 80 99 100 100 100 100 100 100 100 90 86 97 97 96 97 95 98 98 94 96 94 95 100 91
Wind_Speed
51 52 53 56 58 58 58 55 53 53 57 62 62 57 59 56 55 54 55 55 53 48 40 34 34 33 30 30 31 30 29 26
55 57 58 58 60 58 58 58 59 59 60 61 64 65 58 59 58 58 57 56 57 53 45 37 35 33 32 34 35 32 31 29
55 58 60 62 63 65 63 61 61 66 65 64 64 66 65 62 62 60 58 61 57 57 49 41 39 35 36 36 35 33 33 32
55 59 63 64 66 69 68 69 68 69 66 66 66 67 67 67 65 63 62 58 61 59 54 48 44 38 37 37 37 36 33 34
57 61 62 62 66 66 64 60 53 56 58 55 58 64 70 69 70 69 66 61 61 63 56 53 50 40 39 40 39 37 36 34
48 53 55 56 53 52 45 46 43 45 51 54 52 52 55 71 75 75 74 66 64 65 60 55 53 43 42 43 39 37 36 36
46 52 50 49 46 43 46 44 50 48 49 55 57 53 48 56 77 80 77 74 66 64 71 61 55 48 46 46 39 39 38 38
45 53 45 35 38 44 41 40 43 49 60 63 59 65 67 61 61 84 81 82 71 68 82 75 65 51 49 48 42 39 42 41
42 52 40 34 38 35 36 42 45 54 53 52 51 56 67 71 69 77 83 86 82 75 70 87 71 53 54 50 45 43 46 45
41 47 36 31 38 41 38 41 45 32 39 51 51 55 60 59 63 78 79 92 84 73 67 78 65 60 57 51 50 48 49 48
38 45 40 31 34 36 39 43 36 30 43 42 43 41 43 52 69 74 78 94 87 82 49 61 56 67 58 58 57 56 54 49
35 36 42 30 32 33 38 42 33 32 36 41 29 34 27 34 66 65 66 81 88 82 84 53 65 66 60 64 63 64 56 58
28 29 33 34 30 31 29 31 30 34 37 28 23 23 29 33 62 56 49 76 89 88 82 38 73 69 63 71 69 61 61 55
30 30 30 31 32 29 25 30 33 33 24 23 22 16 16 24 54 52 41 49 83 60 63 54 76 67 72 71 65 59 56 51
32 32 31 28 30 27 23 24 29 30 12 15 17 15 10 20 23 39 37 45 79 72 42 61 57 76 72 67 63 61 50 61
29 29 30 28 28 30 27 21 20 23 17 11 7 13 13 5 28 18 37 49 66 70 67 60 57 71 80 65 57 58 67 64
28 27 26 25 26 27 28 28 23 20 18 13 7 18 15 10 10 27 23 33 39 66 57 47 55 62 82 66 66 64 77 50
28 28 25 25 24 25 24 25 26 23 22 18 7 5 7 6 15 18 40 36 34 36 40 60 68 44 52 62 68 70 38 28
29 30 30 29 27 26 26 26 22 24 25 24 20 13 10 11 16 20 36 41 27 27 26 31 40 45 42 45 36 28 31 37
Wind_Direction
287 282 279 278 276 274 271 265 259 256 257 259 255 258 262 258 252 244 247 247 254 257 255 252 252 255 258 257 258 256 256 257
288 287 286 283 280 274 271 271 268 260 255 251 253 253 252 256 254 251 242 240 244 252 254 248 248 250 253 252 254 256 259 257
289 287 284 282 281 281 280 272 265 263 260 256 250 249 249 248 251 250 245 241 238 242 250 247 245 243 248 253 256 257 258 260
287 285 283 281 279 275 272 270 268 267 264 259 256 248 245 247 246 248 247 246 240 230 241 244 242 240 244 249 254 256 257 261
291 289 290 288 288 289 285 279 276 272 268 264 260 254 245 241 241 243 243 244 246 239 233 240 242 238 239 245 249 255 257 261
296 294 297 296 290 287 285 285 278 272 276 277 270 263 249 238 235 236 240 235 240 238 233 240 240 235 239 242 245 253 259 260
299 307 301 296 295 295 286 279 277 278 276 278 271 260 255 249 233 230 233 234 234 239 231 233 231 229 234 242 242 248 254 257
305 312 303 292 300 294 288 287 287 282 281 280 272 257 261 263 246 228 225 231 228 234 229 223 230 227 233 239 243 246 252 254
319 313 304 292 306 297 282 290 284 286 278 273 271 274 271 259 251 233 222 225 223 229 234 224 223 226 233 238 240 244 250 254
316 326 309 301 303 311 302 296 301 286 300 297 282 282 270 260 232 226 222 219 219 227 237 216 213 225 230 237 241 242 248 252
307 324 321 306 311 309 311 312 309 304 296 301 286 275 274 259 222 214 220 216 215 217 221 229 220 221 227 234 238 241 243 247
311 325 330 319 322 324 320 323 320 311 284 300 293 270 283 258 213 211 218 219 215 215 223 230 224 217 226 232 236 239 242 247
313 321 333 339 327 331 326 342 317 321 309 317 288 310 291 231 206 211 213 218 215 215 225 228 204 212 224 230 234 238 240 250
311 315 331 342 339 330 336 343 337 330 321 332 329 319 275 229 207 214 217 223 214 199 208 226 221 221 226 230 236 240 235 245
307 314 323 337 350 351 334 344 345 344 337 324 333 334 285 232 235 223 219 218 218 217 216 218 223 223 225 228 235 242 256 246
311 317 319 328 345 356 355 325 316 337 340 332 302 340 317 218 227 214 225 225 224 216 239 239 214 226 229 232 237 242 247 241
308 312 317 323 334 344 356 351 336 340 345 335 331 307 309 168 223 235 209 215 223 229 239 208 231 206 226 227 236 238 237 230
305 308 313 320 327 335 344 356 353 346 342 342 341 256 260 306 284 214 198 224 253 246 241 234 224 234 236 230 227 234 229 233
303 305 310 314 320 325 333 339 349 358 354 342 337 325 312 285 280 275 227 255 260 257 234 224 229 239 240 232 231 245 243 251